owner,sensor,date,latitude,longitude,vertical_datum,sea_water_practical_salinity,qcFlag 
DISL,ioos:station:DISL:BSCA:1,2017-07-01T00:00:00Z,30.3288,-87.8293,2.088,5.28,1111122 
DISL,ioos:station:DISL:BSCA:1,2017-07-01T00:30:00Z,30.3288,-87.8293,2.088,5.24,1111122 
DISL,ioos:station:DISL:BSCA:1,2017-07-01T01:00:00Z,30.3288,-87.8293,2.082,5.22,1111122 
DISL,ioos:station:DISL:BSCA:1,2017-07-01T01:30:00Z,30.3288,-87.8293,2.073,5.23,1111122 
DISL,ioos:station:DISL:BSCA:1,2017-07-01T02:00:00Z,30.3288,-87.8293,2.056,5.25,1111122 
DISL,ioos:station:DISL:BSCA:1,2017-07-01T02:30:00Z,30.3288,-87.8293,2.032,5.25,1111122 
DISL,ioos:station:DISL:BSCA:1,2017-07-01T03:00:00Z,30.3288,-87.8293,2.019,5.26,1111122 
DISL,ioos:station:DISL:BSCA:1,2017-07-01T03:30:00Z,30.3288,-87.8293,1.997,5.26,1111122 
DISL,ioos:station:DISL:BSCA:1,2017-07-01T04:00:00Z,30.3288,-87.8293,1.993,5.26,1111122 
DISL,ioos:station:DISL:BSCA:1,2017-07-01T04:30:00Z,30.3288,-87.8293,1.993,5.27,1111122 
DISL,ioos:station:DISL:BSCA:1,2017-07-01T05:00:00Z,30.3288,-87.8293,1.997,5.27,1111122 
DISL,ioos:station:DISL:BSCA:1,2017-07-01T05:30:00Z,30.3288,-87.8293,2.0,5.27,1111122 
DISL,ioos:station:DISL:BSCA:1,2017-07-01T06:00:00Z,30.3288,-87.8293,2.017,5.26,1111122 
DISL,ioos:station:DISL:BSCA:1,2017-07-01T06:30:00Z,30.3288,-87.8293,2.049,5.25,1111122 
DISL,ioos:station:DISL:BSCA:1,2017-07-01T07:00:00Z,30.3288,-87.8293,2.089,5.22,1111122 
DISL,ioos:station:DISL:BSCA:1,2017-07-01T07:30:00Z,30.3288,-87.8293,2.129,5.22,1111122 
DISL,ioos:station:DISL:BSCA:1,2017-07-01T08:00:00Z,30.3288,-87.8293,2.166,5.22,1111122 
DISL,ioos:station:DISL:BSCA:1,2017-07-01T08:30:00Z,30.3288,-87.8293,2.177,5.2,1111122 
DISL,ioos:station:DISL:BSCA:1,2017-07-01T09:00:00Z,30.3288,-87.8293,2.188,5.17,1111122 
DISL,ioos:station:DISL:BSCA:1,2017-07-01T09:30:00Z,30.3288,-87.8293,2.183,5.18,1111122 
DISL,ioos:station:DISL:BSCA:1,2017-07-01T10:00:00Z,30.3288,-87.8293,2.181,5.18,1111122 
DISL,ioos:station:DISL:BSCA:1,2017-07-01T10:30:00Z,30.3288,-87.8293,2.174,5.19,1111122 
DISL,ioos:station:DISL:BSCA:1,2017-07-01T11:00:00Z,30.3288,-87.8293,2.17,5.22,1111122 
DISL,ioos:station:DISL:BSCA:1,2017-07-01T11:30:00Z,30.3288,-87.8293,2.177,5.22,1111122 
DISL,ioos:station:DISL:BSCA:1,2017-07-01T12:00:00Z,30.3288,-87.8293,2.136,5.19,1111122 
DISL,ioos:station:DISL:BSCA:1,2017-07-01T12:30:00Z,30.3288,-87.8293,2.169,5.26,1111122 
DISL,ioos:station:DISL:BSCA:1,2017-07-01T13:00:00Z,30.3288,-87.8293,2.142,5.25,1111122 
DISL,ioos:station:DISL:BSCA:1,2017-07-01T13:30:00Z,30.3288,-87.8293,2.143,5.27,1111122 
DISL,ioos:station:DISL:BSCA:1,2017-07-01T14:00:00Z,30.3288,-87.8293,2.128,5.33,1111122 
DISL,ioos:station:DISL:BSCA:1,2017-07-01T14:30:00Z,30.3288,-87.8293,2.105,5.33,1111122 
DISL,ioos:station:DISL:BSCA:1,2017-07-01T15:00:00Z,30.3288,-87.8293,2.094,5.6,1111122 
DISL,ioos:station:DISL:BSCA:1,2017-07-01T15:30:00Z,30.3288,-87.8293,2.14,5.7,1111122 
DISL,ioos:station:DISL:BSCA:1,2017-07-01T16:00:00Z,30.3288,-87.8293,2.087,5.26,1111122 
DISL,ioos:station:DISL:BSCA:1,2017-07-01T16:30:00Z,30.3288,-87.8293,2.162,5.58,1111122 
DISL,ioos:station:DISL:BSCA:1,2017-07-01T17:00:00Z,30.3288,-87.8293,2.057,5.62,1111122 
DISL,ioos:station:DISL:BSCA:1,2017-07-01T17:30:00Z,30.3288,-87.8293,2.021,5.83,1111122 
DISL,ioos:station:DISL:BSCA:1,2017-07-01T18:00:00Z,30.3288,-87.8293,1.983,5.9,1111122 
DISL,ioos:station:DISL:BSCA:1,2017-07-01T18:30:00Z,30.3288,-87.8293,2.008,5.78,1111122 
DISL,ioos:station:DISL:BSCA:1,2017-07-01T19:00:00Z,30.3288,-87.8293,2.01,5.69,1111122 
DISL,ioos:station:DISL:BSCA:1,2017-07-01T19:30:00Z,30.3288,-87.8293,2.019,5.88,1111122 
DISL,ioos:station:DISL:BSCA:1,2017-07-01T20:00:00Z,30.3288,-87.8293,2.03,6.08,1111122 
DISL,ioos:station:DISL:BSCA:1,2017-07-01T20:30:00Z,30.3288,-87.8293,2.009,6.22,1111122 
DISL,ioos:station:DISL:BSCA:1,2017-07-01T21:00:00Z,30.3288,-87.8293,2.007,6.15,1111122 
DISL,ioos:station:DISL:BSCA:1,2017-07-01T21:30:00Z,30.3288,-87.8293,2.002,5.97,1111122 
DISL,ioos:station:DISL:BSCA:1,2017-07-01T22:00:00Z,30.3288,-87.8293,1.989,5.57,1111122 
DISL,ioos:station:DISL:BSCA:1,2017-07-01T22:30:00Z,30.3288,-87.8293,1.987,5.69,1111122 
DISL,ioos:station:DISL:BSCA:1,2017-07-01T23:00:00Z,30.3288,-87.8293,1.984,5.74,1111122 
DISL,ioos:station:DISL:BSCA:1,2017-07-01T23:30:00Z,30.3288,-87.8293,1.99,5.67,1111122 
DISL,ioos:station:DISL:BSCA:1,2017-07-02T00:00:00Z,30.3288,-87.8293,1.977,5.58,1111122 
DISL,ioos:station:DISL:BSCA:1,2017-07-02T00:30:00Z,30.3288,-87.8293,1.99,5.59,1111122 
DISL,ioos:station:DISL:BSCA:1,2017-07-02T01:00:00Z,30.3288,-87.8293,2.01,5.58,1111122 
DISL,ioos:station:DISL:BSCA:1,2017-07-02T01:30:00Z,30.3288,-87.8293,2.024,5.61,1111122 
DISL,ioos:station:DISL:BSCA:1,2017-07-02T02:00:00Z,30.3288,-87.8293,2.04,5.62,1111122 
DISL,ioos:station:DISL:BSCA:1,2017-07-02T02:30:00Z,30.3288,-87.8293,2.028,5.65,1111122 
DISL,ioos:station:DISL:BSCA:1,2017-07-02T03:00:00Z,30.3288,-87.8293,2.027,5.62,1111122 
DISL,ioos:station:DISL:BSCA:1,2017-07-02T03:30:00Z,30.3288,-87.8293,2.021,5.68,1111122 
DISL,ioos:station:DISL:BSCA:1,2017-07-02T04:00:00Z,30.3288,-87.8293,2.004,5.69,1111122 
DISL,ioos:station:DISL:BSCA:1,2017-07-02T04:30:00Z,30.3288,-87.8293,1.997,5.69,1111122 
DISL,ioos:station:DISL:BSCA:1,2017-07-02T05:00:00Z,30.3288,-87.8293,2.004,5.68,1111122 
DISL,ioos:station:DISL:BSCA:1,2017-07-02T05:30:00Z,30.3288,-87.8293,1.999,5.77,1111122 
DISL,ioos:station:DISL:BSCA:1,2017-07-02T06:00:00Z,30.3288,-87.8293,2.012,5.79,1111122 
DISL,ioos:station:DISL:BSCA:1,2017-07-02T06:30:00Z,30.3288,-87.8293,2.004,5.77,1111122 
DISL,ioos:station:DISL:BSCA:1,2017-07-02T07:00:00Z,30.3288,-87.8293,2.023,5.87,1111122 
DISL,ioos:station:DISL:BSCA:1,2017-07-02T07:30:00Z,30.3288,-87.8293,2.003,5.98,1111122 
DISL,ioos:station:DISL:BSCA:1,2017-07-02T08:00:00Z,30.3288,-87.8293,1.973,6.02,1111122 
DISL,ioos:station:DISL:BSCA:1,2017-07-02T08:30:00Z,30.3288,-87.8293,1.996,6.12,1111122 
DISL,ioos:station:DISL:BSCA:1,2017-07-02T09:00:00Z,30.3288,-87.8293,1.989,6.15,1111122 
DISL,ioos:station:DISL:BSCA:1,2017-07-02T09:30:00Z,30.3288,-87.8293,2.053,6.15,1111122 
DISL,ioos:station:DISL:BSCA:1,2017-07-02T10:00:00Z,30.3288,-87.8293,2.092,6.15,1111122 
DISL,ioos:station:DISL:BSCA:1,2017-07-02T10:30:00Z,30.3288,-87.8293,2.127,6.17,1111122 
DISL,ioos:station:DISL:BSCA:1,2017-07-02T11:00:00Z,30.3288,-87.8293,2.161,6.26,1111122 
DISL,ioos:station:DISL:BSCA:1,2017-07-02T11:30:00Z,30.3288,-87.8293,2.167,6.29,1111122 
DISL,ioos:station:DISL:BSCA:1,2017-07-02T12:00:00Z,30.3288,-87.8293,2.17,6.33,1111122 
DISL,ioos:station:DISL:BSCA:1,2017-07-02T12:30:00Z,30.3288,-87.8293,2.182,6.52,1111122 
DISL,ioos:station:DISL:BSCA:1,2017-07-02T13:00:00Z,30.3288,-87.8293,2.202,6.62,1111122 
DISL,ioos:station:DISL:BSCA:1,2017-07-02T13:30:00Z,30.3288,-87.8293,2.214,6.68,1111122 
DISL,ioos:station:DISL:BSCA:1,2017-07-02T14:00:00Z,30.3288,-87.8293,2.215,6.67,1111122 
DISL,ioos:station:DISL:BSCA:1,2017-07-02T14:30:00Z,30.3288,-87.8293,2.226,6.65,1111122 
DISL,ioos:station:DISL:BSCA:1,2017-07-02T15:00:00Z,30.3288,-87.8293,2.186,6.63,1111122 
DISL,ioos:station:DISL:BSCA:1,2017-07-02T15:30:00Z,30.3288,-87.8293,2.193,6.61,1111122 
DISL,ioos:station:DISL:BSCA:1,2017-07-02T16:00:00Z,30.3288,-87.8293,2.157,6.61,1111122 
DISL,ioos:station:DISL:BSCA:1,2017-07-02T16:30:00Z,30.3288,-87.8293,2.147,6.62,1111122 
DISL,ioos:station:DISL:BSCA:1,2017-07-02T17:00:00Z,30.3288,-87.8293,2.13,6.66,1111122 
DISL,ioos:station:DISL:BSCA:1,2017-07-02T17:30:00Z,30.3288,-87.8293,2.099,6.65,1111122 
DISL,ioos:station:DISL:BSCA:1,2017-07-02T18:00:00Z,30.3288,-87.8293,2.075,6.64,1111122 
DISL,ioos:station:DISL:BSCA:1,2017-07-02T18:30:00Z,30.3288,-87.8293,2.045,6.73,1111122 
DISL,ioos:station:DISL:BSCA:1,2017-07-02T19:00:00Z,30.3288,-87.8293,2.018,6.65,1111122 
DISL,ioos:station:DISL:BSCA:1,2017-07-02T19:30:00Z,30.3288,-87.8293,2.003,6.65,1111122 
DISL,ioos:station:DISL:BSCA:1,2017-07-02T20:00:00Z,30.3288,-87.8293,1.996,6.55,1111122 
DISL,ioos:station:DISL:BSCA:1,2017-07-02T20:30:00Z,30.3288,-87.8293,1.977,6.54,1111122 
DISL,ioos:station:DISL:BSCA:1,2017-07-02T21:00:00Z,30.3288,-87.8293,1.981,6.74,1111122 
DISL,ioos:station:DISL:BSCA:1,2017-07-02T21:30:00Z,30.3288,-87.8293,1.96,6.85,1111122 
DISL,ioos:station:DISL:BSCA:1,2017-07-02T22:00:00Z,30.3288,-87.8293,1.959,6.72,1111122 
DISL,ioos:station:DISL:BSCA:1,2017-07-02T22:30:00Z,30.3288,-87.8293,1.95,7.06,1111122 
DISL,ioos:station:DISL:BSCA:1,2017-07-02T23:00:00Z,30.3288,-87.8293,1.933,7.07,1111122 
DISL,ioos:station:DISL:BSCA:1,2017-07-02T23:30:00Z,30.3288,-87.8293,1.931,7.05,1111122 
DISL,ioos:station:DISL:BSCA:1,2017-07-03T00:00:00Z,30.3288,-87.8293,1.933,6.98,1111122 
DISL,ioos:station:DISL:BSCA:1,2017-07-03T00:30:00Z,30.3288,-87.8293,1.938,6.9,1111122 
DISL,ioos:station:DISL:BSCA:1,2017-07-03T01:00:00Z,30.3288,-87.8293,1.943,6.87,1111122 
DISL,ioos:station:DISL:BSCA:1,2017-07-03T01:30:00Z,30.3288,-87.8293,1.946,6.88,1111122 
DISL,ioos:station:DISL:BSCA:1,2017-07-03T02:00:00Z,30.3288,-87.8293,1.945,6.89,1111122 
DISL,ioos:station:DISL:BSCA:1,2017-07-03T02:30:00Z,30.3288,-87.8293,1.951,6.92,1111122 
DISL,ioos:station:DISL:BSCA:1,2017-07-03T03:00:00Z,30.3288,-87.8293,1.952,6.74,1111122 
DISL,ioos:station:DISL:BSCA:1,2017-07-03T03:30:00Z,30.3288,-87.8293,1.964,6.73,1111122 
DISL,ioos:station:DISL:BSCA:1,2017-07-03T04:00:00Z,30.3288,-87.8293,1.976,6.7,1111122 
DISL,ioos:station:DISL:BSCA:1,2017-07-03T04:30:00Z,30.3288,-87.8293,1.981,6.71,1111122 
DISL,ioos:station:DISL:BSCA:1,2017-07-03T05:00:00Z,30.3288,-87.8293,1.992,6.69,1111122 
DISL,ioos:station:DISL:BSCA:1,2017-07-03T05:30:00Z,30.3288,-87.8293,2.0,6.63,1111122 
DISL,ioos:station:DISL:BSCA:1,2017-07-03T06:00:00Z,30.3288,-87.8293,2.001,6.52,1111122 
DISL,ioos:station:DISL:BSCA:1,2017-07-03T06:30:00Z,30.3288,-87.8293,2.012,6.5,1111122 
DISL,ioos:station:DISL:BSCA:1,2017-07-03T07:00:00Z,30.3288,-87.8293,2.004,6.38,1111122 
DISL,ioos:station:DISL:BSCA:1,2017-07-03T07:30:00Z,30.3288,-87.8293,2.04,6.33,1111122 
DISL,ioos:station:DISL:BSCA:1,2017-07-03T08:00:00Z,30.3288,-87.8293,2.049,6.23,1111122 
DISL,ioos:station:DISL:BSCA:1,2017-07-03T08:30:00Z,30.3288,-87.8293,2.071,6.13,1111122 
DISL,ioos:station:DISL:BSCA:1,2017-07-03T09:00:00Z,30.3288,-87.8293,2.089,6.11,1111122 
DISL,ioos:station:DISL:BSCA:1,2017-07-03T09:30:00Z,30.3288,-87.8293,2.119,6.06,1111122 
DISL,ioos:station:DISL:BSCA:1,2017-07-03T10:00:00Z,30.3288,-87.8293,2.14,6.01,1111122 
DISL,ioos:station:DISL:BSCA:1,2017-07-03T10:30:00Z,30.3288,-87.8293,2.168,6.0,1111122 
DISL,ioos:station:DISL:BSCA:1,2017-07-03T11:00:00Z,30.3288,-87.8293,2.184,5.77,1111122 
DISL,ioos:station:DISL:BSCA:1,2017-07-03T11:30:00Z,30.3288,-87.8293,2.192,5.76,1111122 
DISL,ioos:station:DISL:BSCA:1,2017-07-03T12:00:00Z,30.3288,-87.8293,2.187,5.86,1111122 
DISL,ioos:station:DISL:BSCA:1,2017-07-03T12:30:00Z,30.3288,-87.8293,2.196,5.71,1111122 
DISL,ioos:station:DISL:BSCA:1,2017-07-03T13:00:00Z,30.3288,-87.8293,2.197,5.51,1111122 
DISL,ioos:station:DISL:BSCA:1,2017-07-03T13:30:00Z,30.3288,-87.8293,2.192,5.61,1111122 
DISL,ioos:station:DISL:BSCA:1,2017-07-03T14:00:00Z,30.3288,-87.8293,2.194,5.67,1111122 
DISL,ioos:station:DISL:BSCA:1,2017-07-03T14:30:00Z,30.3288,-87.8293,2.166,5.78,1111122 
DISL,ioos:station:DISL:BSCA:1,2017-07-03T15:00:00Z,30.3288,-87.8293,2.152,5.75,1111122 
DISL,ioos:station:DISL:BSCA:1,2017-07-03T15:30:00Z,30.3288,-87.8293,2.144,5.78,1111122 
DISL,ioos:station:DISL:BSCA:1,2017-07-03T16:00:00Z,30.3288,-87.8293,2.11,5.84,1111122 
DISL,ioos:station:DISL:BSCA:1,2017-07-03T16:30:00Z,30.3288,-87.8293,2.097,5.85,1111122 
DISL,ioos:station:DISL:BSCA:1,2017-07-03T17:00:00Z,30.3288,-87.8293,2.072,5.81,1111122 
DISL,ioos:station:DISL:BSCA:1,2017-07-03T17:30:00Z,30.3288,-87.8293,2.05,5.86,1111122 
DISL,ioos:station:DISL:BSCA:1,2017-07-03T18:00:00Z,30.3288,-87.8293,2.027,5.69,1111122 
DISL,ioos:station:DISL:BSCA:1,2017-07-03T18:30:00Z,30.3288,-87.8293,2.005,5.18,1111122 
DISL,ioos:station:DISL:BSCA:1,2017-07-03T19:00:00Z,30.3288,-87.8293,1.987,5.09,1111122 
DISL,ioos:station:DISL:BSCA:1,2017-07-03T19:30:00Z,30.3288,-87.8293,1.96,4.99,1111122 
DISL,ioos:station:DISL:BSCA:1,2017-07-03T20:00:00Z,30.3288,-87.8293,1.942,4.93,1111122 
DISL,ioos:station:DISL:BSCA:1,2017-07-03T20:30:00Z,30.3288,-87.8293,1.937,5.01,1111122 
DISL,ioos:station:DISL:BSCA:1,2017-07-03T21:00:00Z,30.3288,-87.8293,1.915,5.03,1111122 
DISL,ioos:station:DISL:BSCA:1,2017-07-03T21:30:00Z,30.3288,-87.8293,1.901,5.0,1111122 
DISL,ioos:station:DISL:BSCA:1,2017-07-03T22:00:00Z,30.3288,-87.8293,1.895,5.25,1111122 
DISL,ioos:station:DISL:BSCA:1,2017-07-03T22:30:00Z,30.3288,-87.8293,1.882,5.46,1111122 
DISL,ioos:station:DISL:BSCA:1,2017-07-03T23:00:00Z,30.3288,-87.8293,1.888,5.23,1111122 
DISL,ioos:station:DISL:BSCA:1,2017-07-03T23:30:00Z,30.3288,-87.8293,1.878,5.29,1111122 
DISL,ioos:station:DISL:BSCA:1,2017-07-04T00:00:00Z,30.3288,-87.8293,1.888,5.0,1111122 
DISL,ioos:station:DISL:BSCA:1,2017-07-04T00:30:00Z,30.3288,-87.8293,1.881,4.76,1111122 
DISL,ioos:station:DISL:BSCA:1,2017-07-04T01:00:00Z,30.3288,-87.8293,1.88,4.7,1111122 
DISL,ioos:station:DISL:BSCA:1,2017-07-04T01:30:00Z,30.3288,-87.8293,1.893,4.74,1111122 
DISL,ioos:station:DISL:BSCA:1,2017-07-04T02:00:00Z,30.3288,-87.8293,1.896,4.65,1111122 
DISL,ioos:station:DISL:BSCA:1,2017-07-04T02:30:00Z,30.3288,-87.8293,1.915,4.62,1111122 
DISL,ioos:station:DISL:BSCA:1,2017-07-04T03:00:00Z,30.3288,-87.8293,1.92,4.61,1111122 
DISL,ioos:station:DISL:BSCA:1,2017-07-04T03:30:00Z,30.3288,-87.8293,1.936,4.59,1111122 
DISL,ioos:station:DISL:BSCA:1,2017-07-04T04:00:00Z,30.3288,-87.8293,1.944,4.56,1111122 
DISL,ioos:station:DISL:BSCA:1,2017-07-04T04:30:00Z,30.3288,-87.8293,1.955,4.54,1111122 
DISL,ioos:station:DISL:BSCA:1,2017-07-04T05:00:00Z,30.3288,-87.8293,1.971,4.53,1111122 
DISL,ioos:station:DISL:BSCA:1,2017-07-04T05:30:00Z,30.3288,-87.8293,1.989,4.53,1111122 
DISL,ioos:station:DISL:BSCA:1,2017-07-04T06:00:00Z,30.3288,-87.8293,2.006,4.49,1111122 
DISL,ioos:station:DISL:BSCA:1,2017-07-04T06:30:00Z,30.3288,-87.8293,2.038,4.43,1111122 
DISL,ioos:station:DISL:BSCA:1,2017-07-04T07:00:00Z,30.3288,-87.8293,2.063,4.43,1111122 
DISL,ioos:station:DISL:BSCA:1,2017-07-04T07:30:00Z,30.3288,-87.8293,2.103,4.43,1111122 
DISL,ioos:station:DISL:BSCA:1,2017-07-04T08:00:00Z,30.3288,-87.8293,2.127,4.41,1111122 
DISL,ioos:station:DISL:BSCA:1,2017-07-04T08:30:00Z,30.3288,-87.8293,2.152,4.39,1111122 
DISL,ioos:station:DISL:BSCA:1,2017-07-04T09:00:00Z,30.3288,-87.8293,2.183,4.39,1111122 
DISL,ioos:station:DISL:BSCA:1,2017-07-04T09:30:00Z,30.3288,-87.8293,2.205,4.41,1111122 
DISL,ioos:station:DISL:BSCA:1,2017-07-04T10:00:00Z,30.3288,-87.8293,2.233,4.38,1111122 
DISL,ioos:station:DISL:BSCA:1,2017-07-04T10:30:00Z,30.3288,-87.8293,2.241,4.38,1111122 
DISL,ioos:station:DISL:BSCA:1,2017-07-04T11:00:00Z,30.3288,-87.8293,2.254,4.4,1111122 
DISL,ioos:station:DISL:BSCA:1,2017-07-04T11:30:00Z,30.3288,-87.8293,2.243,4.39,1111122 
DISL,ioos:station:DISL:BSCA:1,2017-07-04T12:00:00Z,30.3288,-87.8293,2.233,4.43,1111122 
DISL,ioos:station:DISL:BSCA:1,2017-07-04T12:30:00Z,30.3288,-87.8293,2.222,4.41,1111122 
DISL,ioos:station:DISL:BSCA:1,2017-07-04T13:00:00Z,30.3288,-87.8293,2.214,4.4,1111122 
DISL,ioos:station:DISL:BSCA:1,2017-07-04T13:30:00Z,30.3288,-87.8293,2.201,4.42,1111122 
DISL,ioos:station:DISL:BSCA:1,2017-07-04T14:00:00Z,30.3288,-87.8293,2.198,4.45,1111122 
DISL,ioos:station:DISL:BSCA:1,2017-07-04T14:30:00Z,30.3288,-87.8293,2.197,4.46,1111122 
DISL,ioos:station:DISL:BSCA:1,2017-07-04T15:00:00Z,30.3288,-87.8293,2.187,4.48,1111122 
DISL,ioos:station:DISL:BSCA:1,2017-07-04T15:30:00Z,30.3288,-87.8293,2.179,4.49,1111122 
DISL,ioos:station:DISL:BSCA:1,2017-07-04T16:00:00Z,30.3288,-87.8293,2.15,4.51,1111122 
DISL,ioos:station:DISL:BSCA:1,2017-07-04T16:30:00Z,30.3288,-87.8293,2.141,4.56,1111122 
DISL,ioos:station:DISL:BSCA:1,2017-07-04T17:00:00Z,30.3288,-87.8293,2.112,4.6,1111122 
DISL,ioos:station:DISL:BSCA:1,2017-07-04T17:30:00Z,30.3288,-87.8293,2.082,4.6,1111122 
DISL,ioos:station:DISL:BSCA:1,2017-07-04T18:00:00Z,30.3288,-87.8293,2.055,4.65,1111122 
DISL,ioos:station:DISL:BSCA:1,2017-07-04T18:30:00Z,30.3288,-87.8293,2.031,4.68,1111122 
DISL,ioos:station:DISL:BSCA:1,2017-07-04T19:00:00Z,30.3288,-87.8293,2.009,4.68,1111122 
DISL,ioos:station:DISL:BSCA:1,2017-07-04T19:30:00Z,30.3288,-87.8293,1.988,4.69,1111122 
DISL,ioos:station:DISL:BSCA:1,2017-07-04T20:00:00Z,30.3288,-87.8293,1.967,4.69,1111122 
DISL,ioos:station:DISL:BSCA:1,2017-07-04T20:30:00Z,30.3288,-87.8293,1.938,4.69,1111122 
DISL,ioos:station:DISL:BSCA:1,2017-07-04T21:00:00Z,30.3288,-87.8293,1.92,4.71,1111122 
DISL,ioos:station:DISL:BSCA:1,2017-07-04T21:30:00Z,30.3288,-87.8293,1.89,4.73,1111122 
DISL,ioos:station:DISL:BSCA:1,2017-07-04T22:00:00Z,30.3288,-87.8293,1.885,4.71,1111122 
DISL,ioos:station:DISL:BSCA:1,2017-07-04T22:30:00Z,30.3288,-87.8293,1.88,4.66,1111122 
DISL,ioos:station:DISL:BSCA:1,2017-07-04T23:00:00Z,30.3288,-87.8293,1.868,4.65,1111122 
DISL,ioos:station:DISL:BSCA:1,2017-07-04T23:30:00Z,30.3288,-87.8293,1.861,4.62,1111122 
DISL,ioos:station:DISL:BSCA:1,2017-07-05T00:00:00Z,30.3288,-87.8293,1.843,4.56,1111122 
DISL,ioos:station:DISL:BSCA:1,2017-07-05T00:30:00Z,30.3288,-87.8293,1.854,4.46,1111122 
DISL,ioos:station:DISL:BSCA:1,2017-07-05T01:00:00Z,30.3288,-87.8293,1.849,4.42,1111122 
DISL,ioos:station:DISL:BSCA:1,2017-07-05T01:30:00Z,30.3288,-87.8293,1.866,4.41,1111122 
DISL,ioos:station:DISL:BSCA:1,2017-07-05T02:00:00Z,30.3288,-87.8293,1.869,4.37,1111122 
DISL,ioos:station:DISL:BSCA:1,2017-07-05T02:30:00Z,30.3288,-87.8293,1.873,4.39,1111122 
DISL,ioos:station:DISL:BSCA:1,2017-07-05T03:00:00Z,30.3288,-87.8293,1.886,4.38,1111122 
DISL,ioos:station:DISL:BSCA:1,2017-07-05T03:30:00Z,30.3288,-87.8293,1.902,4.41,1111122 
DISL,ioos:station:DISL:BSCA:1,2017-07-05T04:00:00Z,30.3288,-87.8293,1.928,4.42,1111122 
DISL,ioos:station:DISL:BSCA:1,2017-07-05T04:30:00Z,30.3288,-87.8293,1.955,4.39,1111122 
DISL,ioos:station:DISL:BSCA:1,2017-07-05T05:00:00Z,30.3288,-87.8293,1.975,4.4,1111122 
DISL,ioos:station:DISL:BSCA:1,2017-07-05T05:30:00Z,30.3288,-87.8293,2.003,4.41,1111122 
DISL,ioos:station:DISL:BSCA:1,2017-07-05T06:00:00Z,30.3288,-87.8293,2.022,4.43,1111122 
DISL,ioos:station:DISL:BSCA:1,2017-07-05T06:30:00Z,30.3288,-87.8293,2.036,4.43,1111122 
DISL,ioos:station:DISL:BSCA:1,2017-07-05T07:00:00Z,30.3288,-87.8293,2.06,4.43,1111122 
DISL,ioos:station:DISL:BSCA:1,2017-07-05T07:30:00Z,30.3288,-87.8293,2.081,4.44,1111122 
DISL,ioos:station:DISL:BSCA:1,2017-07-05T08:00:00Z,30.3288,-87.8293,2.095,4.44,1111122 
DISL,ioos:station:DISL:BSCA:1,2017-07-05T08:30:00Z,30.3288,-87.8293,2.118,4.47,1111122 
DISL,ioos:station:DISL:BSCA:1,2017-07-05T09:00:00Z,30.3288,-87.8293,2.129,4.49,1111122 
DISL,ioos:station:DISL:BSCA:1,2017-07-05T09:30:00Z,30.3288,-87.8293,2.161,4.47,1111122 
DISL,ioos:station:DISL:BSCA:1,2017-07-05T10:00:00Z,30.3288,-87.8293,2.194,4.46,1111122 
DISL,ioos:station:DISL:BSCA:1,2017-07-05T10:30:00Z,30.3288,-87.8293,2.22,4.45,1111122 
DISL,ioos:station:DISL:BSCA:1,2017-07-05T11:00:00Z,30.3288,-87.8293,2.236,4.44,1111122 
DISL,ioos:station:DISL:BSCA:1,2017-07-05T11:30:00Z,30.3288,-87.8293,2.249,4.48,1111122 
DISL,ioos:station:DISL:BSCA:1,2017-07-05T12:00:00Z,30.3288,-87.8293,2.248,4.45,1111122 
DISL,ioos:station:DISL:BSCA:1,2017-07-05T12:30:00Z,30.3288,-87.8293,2.263,4.46,1111122 
DISL,ioos:station:DISL:BSCA:1,2017-07-05T13:00:00Z,30.3288,-87.8293,2.277,4.48,1111122 
DISL,ioos:station:DISL:BSCA:1,2017-07-05T13:30:00Z,30.3288,-87.8293,2.287,4.5,1111122 
DISL,ioos:station:DISL:BSCA:1,2017-07-05T14:00:00Z,30.3288,-87.8293,2.287,4.53,1111122 
DISL,ioos:station:DISL:BSCA:1,2017-07-05T14:30:00Z,30.3288,-87.8293,2.279,4.59,1111122 
DISL,ioos:station:DISL:BSCA:1,2017-07-05T15:00:00Z,30.3288,-87.8293,2.28,4.56,1111122 
DISL,ioos:station:DISL:BSCA:1,2017-07-05T15:30:00Z,30.3288,-87.8293,2.272,4.57,1111122 
DISL,ioos:station:DISL:BSCA:1,2017-07-05T16:00:00Z,30.3288,-87.8293,2.239,4.6,1111122 
DISL,ioos:station:DISL:BSCA:1,2017-07-05T16:30:00Z,30.3288,-87.8293,2.21,4.57,1111122 
DISL,ioos:station:DISL:BSCA:1,2017-07-05T17:00:00Z,30.3288,-87.8293,2.18,4.59,1111122 
DISL,ioos:station:DISL:BSCA:1,2017-07-05T17:30:00Z,30.3288,-87.8293,2.148,4.59,1111122 
DISL,ioos:station:DISL:BSCA:1,2017-07-05T18:00:00Z,30.3288,-87.8293,2.122,4.55,1111122 
DISL,ioos:station:DISL:BSCA:1,2017-07-05T18:30:00Z,30.3288,-87.8293,2.089,4.58,1111122 
DISL,ioos:station:DISL:BSCA:1,2017-07-05T19:00:00Z,30.3288,-87.8293,2.069,4.52,1111122 
DISL,ioos:station:DISL:BSCA:1,2017-07-05T19:30:00Z,30.3288,-87.8293,2.045,4.54,1111122 
DISL,ioos:station:DISL:BSCA:1,2017-07-05T20:00:00Z,30.3288,-87.8293,2.016,4.55,1111122 
DISL,ioos:station:DISL:BSCA:1,2017-07-05T20:30:00Z,30.3288,-87.8293,1.975,4.58,1111122 
DISL,ioos:station:DISL:BSCA:1,2017-07-05T21:00:00Z,30.3288,-87.8293,1.933,4.58,1111122 
DISL,ioos:station:DISL:BSCA:1,2017-07-05T21:30:00Z,30.3288,-87.8293,1.918,4.61,1111122 
DISL,ioos:station:DISL:BSCA:1,2017-07-05T22:00:00Z,30.3288,-87.8293,1.881,4.5,1111122 
DISL,ioos:station:DISL:BSCA:1,2017-07-05T22:30:00Z,30.3288,-87.8293,1.871,4.3,1111122 
DISL,ioos:station:DISL:BSCA:1,2017-07-05T23:00:00Z,30.3288,-87.8293,1.862,4.1,1111122 
DISL,ioos:station:DISL:BSCA:1,2017-07-05T23:30:00Z,30.3288,-87.8293,1.861,4.0,1111122 
DISL,ioos:station:DISL:BSCA:1,2017-07-06T00:00:00Z,30.3288,-87.8293,1.858,3.9,1111122 
DISL,ioos:station:DISL:BSCA:1,2017-07-06T00:30:00Z,30.3288,-87.8293,1.852,3.91,1111122 
DISL,ioos:station:DISL:BSCA:1,2017-07-06T01:00:00Z,30.3288,-87.8293,1.839,3.91,1111122 
DISL,ioos:station:DISL:BSCA:1,2017-07-06T01:30:00Z,30.3288,-87.8293,1.834,3.95,1111122 
DISL,ioos:station:DISL:BSCA:1,2017-07-06T02:00:00Z,30.3288,-87.8293,1.83,3.91,1111122 
DISL,ioos:station:DISL:BSCA:1,2017-07-06T02:30:00Z,30.3288,-87.8293,1.84,3.93,1111122 
DISL,ioos:station:DISL:BSCA:1,2017-07-06T03:00:00Z,30.3288,-87.8293,1.859,3.89,1111122 
DISL,ioos:station:DISL:BSCA:1,2017-07-06T03:30:00Z,30.3288,-87.8293,1.885,3.88,1111122 
DISL,ioos:station:DISL:BSCA:1,2017-07-06T04:00:00Z,30.3288,-87.8293,1.903,3.84,1111122 
DISL,ioos:station:DISL:BSCA:1,2017-07-06T04:30:00Z,30.3288,-87.8293,1.919,3.84,1111122 
DISL,ioos:station:DISL:BSCA:1,2017-07-06T05:00:00Z,30.3288,-87.8293,1.94,3.83,1111122 
DISL,ioos:station:DISL:BSCA:1,2017-07-06T05:30:00Z,30.3288,-87.8293,1.948,3.82,1111122 
DISL,ioos:station:DISL:BSCA:1,2017-07-06T06:00:00Z,30.3288,-87.8293,1.982,3.82,1111122 
DISL,ioos:station:DISL:BSCA:1,2017-07-06T06:30:00Z,30.3288,-87.8293,2.002,3.84,1111122 
DISL,ioos:station:DISL:BSCA:1,2017-07-06T07:00:00Z,30.3288,-87.8293,2.032,3.84,1111122 
DISL,ioos:station:DISL:BSCA:1,2017-07-06T07:30:00Z,30.3288,-87.8293,2.054,3.83,1111122 
DISL,ioos:station:DISL:BSCA:1,2017-07-06T08:00:00Z,30.3288,-87.8293,2.076,3.83,1111122 
DISL,ioos:station:DISL:BSCA:1,2017-07-06T08:30:00Z,30.3288,-87.8293,2.106,3.81,1111122 
DISL,ioos:station:DISL:BSCA:1,2017-07-06T09:00:00Z,30.3288,-87.8293,2.132,3.81,1111122 
DISL,ioos:station:DISL:BSCA:1,2017-07-06T09:30:00Z,30.3288,-87.8293,2.153,3.81,1111122 
DISL,ioos:station:DISL:BSCA:1,2017-07-06T10:00:00Z,30.3288,-87.8293,2.171,3.83,1111122 
DISL,ioos:station:DISL:BSCA:1,2017-07-06T10:30:00Z,30.3288,-87.8293,2.196,3.83,1111122 
DISL,ioos:station:DISL:BSCA:1,2017-07-06T11:00:00Z,30.3288,-87.8293,2.226,3.83,1111122 
DISL,ioos:station:DISL:BSCA:1,2017-07-06T11:30:00Z,30.3288,-87.8293,2.249,3.79,1111122 
DISL,ioos:station:DISL:BSCA:1,2017-07-06T12:00:00Z,30.3288,-87.8293,2.275,3.76,1111122 
DISL,ioos:station:DISL:BSCA:1,2017-07-06T12:30:00Z,30.3288,-87.8293,2.29,3.79,1111122 
DISL,ioos:station:DISL:BSCA:1,2017-07-06T13:00:00Z,30.3288,-87.8293,2.299,3.82,1111122 
DISL,ioos:station:DISL:BSCA:1,2017-07-06T13:30:00Z,30.3288,-87.8293,2.311,3.81,1111122 
DISL,ioos:station:DISL:BSCA:1,2017-07-06T14:00:00Z,30.3288,-87.8293,2.318,3.83,1111122 
DISL,ioos:station:DISL:BSCA:1,2017-07-06T14:30:00Z,30.3288,-87.8293,2.307,3.81,1111122 
DISL,ioos:station:DISL:BSCA:1,2017-07-06T15:00:00Z,30.3288,-87.8293,2.301,3.78,1111122 
DISL,ioos:station:DISL:BSCA:1,2017-07-06T15:30:00Z,30.3288,-87.8293,2.287,3.81,1111122 